sat.trackr.live / text

‹ back to catalog

STARLINK-2250

NORAD 48593 · 2021-041AS

PAYLOAD ACTIVE UNKNOWN

§ Identity

Operator
Country
US
Launch date
2021-05-15
Launch site
AFETR
Launch vehicle
Mass (kg)
RCS (m²)

Purposes: comms

External: N2YO · Heavens-Above · Gunter

§ Orbital elements

Epoch: 2026-09-12T14:04:53.012352Z

Period
94.01 min
Inclination
53.1611°
Eccentricity
0.0001239
Mean motion
15.31694528 rev/d
Perigee alt
469.9 km
Apogee alt
471.6 km
Semi-major
6,848.9 km
B*
5.6244e-5
RAAN
350.1373°
Arg perigee
81.1961°
Mean anomaly
278.9181°
Rev number
29,372

§ Raw data

STARLINK-22501 48593U 21041AS  26255.58672468  .00001380  00000+0  56244-4 0  99992 48593  53.1611 350.1373 0001239  81.1961 278.9181 15.31694528293724

JSON: /api/v1/satellites/48593 · /tle

For live sub-satellite position, see the globe view (requires WebGL).

§ Visibility from observer

Set your observer location to see the next 7 days of passes ≥ 10°. The values pass through the URL so the page stays shareable.

No JS? Fill the form by hand. The geolocation button needs JavaScript.